SCP
-0 0 0 0 0 0 0 0 0 0 0 0 -0 -0 -0 -0 -0 0 0 -0 -0 -0 0 0 0 0 0 0 0 0 0 1 0
-0 -0 -0 -0 0 0 0 0 0 0 0 0 -0 -0 -0 -0 -0 -0 -0 -0 -0 -0 0 0 0 0 0 -0 0 0 0 1 1
-0 -0 -0 -0 -0 0 0 0 0 0 0 0 0 0 -0 -0 -0 -0 -0 -0 -0 -0 0 0 0 0 0 0 0 1 1 1 0
-0 -0 -0 -0 -0 -0 0 0 0 0 0 0 0 0 0 0 0 0 0 0 0 0 0 0 0 0 0 0 1 1 1 0 0
0 0 0 0 0 0 0 0 0 0 0 0 0 0 0 0 0 0 0 0 0 0 0 0 0 0 0 0 0 0 0 0 0
-0 0 0 0 -0 -0 -0 -0 -0 -0 -0 0 -0 0 0 0 0 0 0 0 0 0 0 0 0 0 0 0 0 0 0 0 0
0 0 0 -0 -0 -0 -0 -0 -0 -0 -1 -0 -0 -0 0 0 0 0 0 0 0 0 0 0 0 0 0 0 0 0 0 0 0
-0 -0 -0 -0 -0 -0 -0 -1 -1 -1 -1 -0 -0 -0 0 0 0 0 0 0 0 0 0 0 0 0 0 0 0 0 0 0 0
-0 -0 -0 -0 -0 -1 -1 -1 -1 -1 -1 -0 -0 0 0 0 0 0 0 0 0 0 0 0 0 0 0 0 0 0 0 0 0
-0 -0 -1 -1 -1 -1 -1 -1 -1 -0 -0 -0 0 0 0 0 0 0 0 0 0 0 0 0 0 0 0 0 0 0 0 0 0
-0 -0 -1 -1 -1 -1 -1 -1 -0 -0 -0 0 0 0 0 0 0 0 0 0 0 0 0 0 0 0 0 0 0 0 -0 -0 0
-0 -0 -1 -1 -1 -1 -1 -0 -0 -0 -0 -0 -0 -0 -0 0 0 0 0 0 0 0 0 0 0 0 0 0 0 0 0 0 0
-0 -0 -0 -1 -1 -1 -0 -0 -0 -0 -0 -0 -0 -0 -0 0 0 0 0 0 0 0 0 0 0 0 0 0 0 0 0 0 0
-0 -0 -1 -1 -0 -0 -0 -0 -0 -0 -0 -0 -0 0 0 0 0 0 0 0 0 0 0 0 0 0 0 0 0 0 0 0 0
-1 -1 -1 -0 -0 -0 -0 -0 -0 -0 -0 -0 -0 0 0 0 0 0 0 0 0 0 0 0 0 0 0 0 0 0 0 0 0
-1 -1 -0 -0 -0 -0 -0 -0 -0 -0 -0 -0 0 0 0 0 0 0 0 0 0 0 0 0 0 0 0 0 0 0 0 0 0
-1 -0 -0 -0 -0 -0 -0 -0 -0 -0 -0 -0 0 0 0 0 0 0 0 0 0 0 0 0 0 0 0 0 0 0 0 0 0
-0 -0 -0 -0 -0 -0 -0 -0 -0 -0 -0 0 0 0 0 0 0 0 0 0 0 0 0 0 0 0 0 0 0 0 0 0 0
-0 -0 -0 -0 -0 -0 -0 -0 -0 -0 -0 -0 0 0 0 0 0 0 0 0 0 0 0 0 0 0 0 0 0 0 0 0 0
-0 -1 -0 -0 -0 -0 -0 -0 -0 -0 -0 0 0 0 0 0 0 0 0 0 0 0 0 0 0 0 0 0 0 0 0 0 0
Wind_Speed_500mb
18 20 25 25 27 25 24 25 24 27 27 29 30 27 20 15 14 14 13 15 15 15 18 20 22 23 26 28 30 31 31 29 26
23 19 20 23 26 27 24 23 22 21 22 22 25 23 23 22 18 16 17 18 20 19 24 25 27 31 33 32 32 35 32 22 22
25 23 22 26 27 24 21 20 18 17 16 17 19 21 20 17 17 17 17 19 22 26 27 30 34 35 35 36 32 32 39 23 22
33 28 27 27 26 23 22 21 18 17 17 15 15 16 17 15 13 12 15 15 18 22 25 32 34 37 40 41 40 36 34 34 32
27 28 29 30 29 27 25 23 20 19 18 16 14 14 15 11 11 10 10 17 24 28 32 31 35 36 35 34 31 30 32 32 29
33 34 35 33 32 30 28 25 24 21 20 19 16 15 15 14 10 10 11 14 15 14 15 17 19 21 19 17 16 15 14 15 14
38 37 37 34 32 29 28 28 27 26 24 21 20 19 14 9 5 2 3 3 7 9 11 14 15 13 14 14 13 14 15 17 14
41 40 37 34 32 29 30 29 28 26 23 21 17 14 12 10 7 5 6 7 7 9 10 11 12 16 17 19 17 16 11 12 13
45 43 39 36 33 32 31 29 27 25 23 20 17 13 12 14 14 13 13 13 16 18 23 25 25 29 30 30 33 32 28 22 17
49 48 44 40 37 34 32 31 29 26 24 22 21 21 23 22 21 22 25 27 30 33 34 35 37 37 37 38 39 37 35 33 33
47 46 44 43 40 38 35 33 29 28 28 28 27 27 27 27 27 27 31 33 34 36 34 34 35 35 36 36 38 36 31 36 30
45 46 44 43 41 40 37 33 32 31 32 29 26 27 29 31 34 33 31 32 32 31 31 31 31 31 30 30 29 29 28 28 24
51 50 49 48 44 40 36 37 35 33 33 29 29 30 33 35 32 31 29 27 28 28 25 26 24 22 22 21 22 21 22 25 21
54 54 56 50 45 41 40 41 39 37 35 33 33 35 35 34 31 28 26 26 25 24 23 22 22 24 27 31 31 30 28 26 20
66 63 57 50 48 46 46 44 43 41 39 37 37 36 33 31 28 25 24 24 25 24 25 25 23 24 22 24 32 32 31 32 33
70 66 61 51 50 53 51 48 43 40 40 41 40 36 32 28 24 22 22 23 25 23 24 19 18 17 17 17 19 21 33 41 42
73 65 60 56 55 55 53 48 42 36 41 41 39 36 32 27 22 22 23 20 19 18 17 16 15 16 15 15 18 20 21 26 27
73 69 63 61 57 55 54 51 44 42 41 43 40 35 30 25 21 20 23 21 19 16 18 17 16 15 13 14 16 24 29 30 29
84 77 72 65 59 57 56 51 47 45 43 44 39 35 30 25 23 22 21 20 19 15 15 16 16 19 20 20 21 19 18 20 22
86 85 78 71 70 63 60 54 50 48 47 45 41 34 31 27 25 22 22 22 18 16 13 10 10 13 18 20 16 14 12 17 21
Wind_Direction_500mb
143 162 160 167 178 185 188 193 194 197 208 218 227 235 244 249 250 242 256 273 265 280 278 286 284 294 294 297 300 301 299 302 310
167 160 144 152 160 171 184 188 196 197 201 210 218 229 241 248 252 253 246 270 286 287 286 288 295 291 291 296 295 296 291 296 294
158 156 148 150 153 158 165 171 183 188 195 201 204 209 222 234 240 263 264 266 278 280 284 287 286 288 289 289 286 283 285 289 295
158 151 148 148 147 148 151 155 166 176 173 179 190 201 206 216 225 249 265 266 277 279 282 291 286 280 281 283 286 285 288 286 289
138 146 139 139 137 136 136 139 144 151 155 162 160 184 195 210 228 235 232 255 273 283 286 286 285 290 294 296 297 302 304 304 299
137 136 135 135 133 131 131 131 131 134 134 141 141 147 136 138 139 228 257 276 293 305 312 312 311 315 326 340 349 352 345 339 337
144 141 139 138 135 135 133 135 138 133 131 135 136 136 158 171 173 206 286 341 332 332 337 342 349 352 348 348 340 341 339 336 323
149 148 146 144 144 140 140 139 137 135 134 135 139 141 144 136 116 76 51 47 35 20 14 11 12 14 24 25 24 24 14 329 327
158 156 152 150 145 140 137 134 132 130 129 130 133 131 122 108 99 88 83 74 73 74 71 70 71 70 64 63 57 52 49 43 34
170 164 159 153 145 141 136 135 136 136 135 131 126 121 110 101 95 97 95 91 90 85 80 76 71 67 64 60 58 54 51 52 55
171 165 157 149 146 140 136 135 138 135 129 122 117 109 105 104 104 102 99 95 87 83 78 72 68 65 61 57 53 49 46 50 48
168 161 155 148 146 144 146 145 143 139 130 125 121 120 119 115 114 109 104 99 90 84 80 75 69 65 62 58 56 51 48 61 54
160 156 153 148 147 146 146 146 145 141 136 134 134 128 124 121 115 111 106 98 93 92 85 82 73 69 66 61 59 53 52 70 44
159 156 152 150 148 148 153 153 151 148 145 145 140 136 131 125 119 112 103 96 90 84 78 72 69 65 63 61 57 54 52 56 61
157 154 154 153 151 156 159 159 159 156 153 148 146 141 134 127 119 110 100 93 87 76 65 66 73 75 66 59 62 56 55 51 52
157 157 156 155 159 160 161 162 163 158 155 153 150 146 139 132 124 114 105 100 86 76 79 81 82 75 68 62 57 48 57 58 58
158 159 157 159 160 160 161 163 163 165 160 159 157 153 148 141 134 126 119 109 99 92 83 80 76 75 74 71 66 68 68 54 48
161 160 161 165 163 164 166 166 167 168 168 165 160 156 151 145 140 136 132 132 121 105 99 102 89 83 92 89 90 82 74 68 54
164 163 169 167 167 168 169 168 170 171 172 167 164 160 158 155 155 149 151 142 134 119 101 82 78 95 107 108 106 88 66 48 32
167 169 173 172 172 173 172 172 173 174 173 172 170 166 167 165 159 163 160 160 156 151 140 107 98 106 114 120 110 78 32 3 360
Wind_Speed_850mb
18 20 25 25 27 25 24 25 24 27 27 29 30 27 20 15 14 14 13 15 15 15 18 20 22 23 26 28 30 31 31 29 26
23 19 20 23 26 27 24 23 22 21 22 22 25 23 23 22 18 16 17 18 20 19 24 25 27 31 33 32 32 35 32 22 22
25 23 22 26 27 24 21 20 18 17 16 17 19 21 20 17 17 17 17 19 22 26 27 30 34 35 35 36 32 32 39 23 22
33 28 27 27 26 23 22 21 18 17 17 15 15 16 17 15 13 12 15 15 18 22 25 32 34 37 40 41 40 36 34 34 32
27 28 29 30 29 27 25 23 20 19 18 16 14 14 15 11 11 10 10 17 24 28 32 31 35 36 35 34 31 30 32 32 29
33 34 35 33 32 30 28 25 24 21 20 19 16 15 15 14 10 10 11 14 15 14 15 17 19 21 19 17 16 15 14 15 14
38 37 37 34 32 29 28 28 27 26 24 21 20 19 14 9 5 2 3 3 7 9 11 14 15 13 14 14 13 14 15 17 14
41 40 37 34 32 29 30 29 28 26 23 21 17 14 12 10 7 5 6 7 7 9 10 11 12 16 17 19 17 16 11 12 13
45 43 39 36 33 32 31 29 27 25 23 20 17 13 12 14 14 13 13 13 16 18 23 25 25 29 30 30 33 32 28 22 17
49 48 44 40 37 34 32 31 29 26 24 22 21 21 23 22 21 22 25 27 30 33 34 35 37 37 37 38 39 37 35 33 33
47 46 44 43 40 38 35 33 29 28 28 28 27 27 27 27 27 27 31 33 34 36 34 34 35 35 36 36 38 36 31 36 30
45 46 44 43 41 40 37 33 32 31 32 29 26 27 29 31 34 33 31 32 32 31 31 31 31 31 30 30 29 29 28 28 24
51 50 49 48 44 40 36 37 35 33 33 29 29 30 33 35 32 31 29 27 28 28 25 26 24 22 22 21 22 21 22 25 21
54 54 56 50 45 41 40 41 39 37 35 33 33 35 35 34 31 28 26 26 25 24 23 22 22 24 27 31 31 30 28 26 20
66 63 57 50 48 46 46 44 43 41 39 37 37 36 33 31 28 25 24 24 25 24 25 25 23 24 22 24 32 32 31 32 33
70 66 61 51 50 53 51 48 43 40 40 41 40 36 32 28 24 22 22 23 25 23 24 19 18 17 17 17 19 21 33 41 42
73 65 60 56 55 55 53 48 42 36 41 41 39 36 32 27 22 22 23 20 19 18 17 16 15 16 15 15 18 20 21 26 27
73 69 63 61 57 55 54 51 44 42 41 43 40 35 30 25 21 20 23 21 19 16 18 17 16 15 13 14 16 24 29 30 29
84 77 72 65 59 57 56 51 47 45 43 44 39 35 30 25 23 22 21 20 19 15 15 16 16 19 20 20 21 19 18 20 22
86 85 78 71 70 63 60 54 50 48 47 45 41 34 31 27 25 22 22 22 18 16 13 10 10 13 18 20 16 14 12 17 21
Wind_Direction_850mb
143 162 160 167 178 185 188 193 194 197 208 218 227 235 244 249 250 242 256 273 265 280 278 286 284 294 294 297 300 301 299 302 310
167 160 144 152 160 171 184 188 196 197 201 210 218 229 241 248 252 253 246 270 286 287 286 288 295 291 291 296 295 296 291 296 294
158 156 148 150 153 158 165 171 183 188 195 201 204 209 222 234 240 263 264 266 278 280 284 287 286 288 289 289 286 283 285 289 295
158 151 148 148 147 148 151 155 166 176 173 179 190 201 206 216 225 249 265 266 277 279 282 291 286 280 281 283 286 285 288 286 289
138 146 139 139 137 136 136 139 144 151 155 162 160 184 195 210 228 235 232 255 273 283 286 286 285 290 294 296 297 302 304 304 299
137 136 135 135 133 131 131 131 131 134 134 141 141 147 136 138 139 228 257 276 293 305 312 312 311 315 326 340 349 352 345 339 337
144 141 139 138 135 135 133 135 138 133 131 135 136 136 158 171 173 206 286 341 332 332 337 342 349 352 348 348 340 341 339 336 323
149 148 146 144 144 140 140 139 137 135 134 135 139 141 144 136 116 76 51 47 35 20 14 11 12 14 24 25 24 24 14 329 327
158 156 152 150 145 140 137 134 132 130 129 130 133 131 122 108 99 88 83 74 73 74 71 70 71 70 64 63 57 52 49 43 34
170 164 159 153 145 141 136 135 136 136 135 131 126 121 110 101 95 97 95 91 90 85 80 76 71 67 64 60 58 54 51 52 55
171 165 157 149 146 140 136 135 138 135 129 122 117 109 105 104 104 102 99 95 87 83 78 72 68 65 61 57 53 49 46 50 48
168 161 155 148 146 144 146 145 143 139 130 125 121 120 119 115 114 109 104 99 90 84 80 75 69 65 62 58 56 51 48 61 54
160 156 153 148 147 146 146 146 145 141 136 134 134 128 124 121 115 111 106 98 93 92 85 82 73 69 66 61 59 53 52 70 44
159 156 152 150 148 148 153 153 151 148 145 145 140 136 131 125 119 112 103 96 90 84 78 72 69 65 63 61 57 54 52 56 61
157 154 154 153 151 156 159 159 159 156 153 148 146 141 134 127 119 110 100 93 87 76 65 66 73 75 66 59 62 56 55 51 52
157 157 156 155 159 160 161 162 163 158 155 153 150 146 139 132 124 114 105 100 86 76 79 81 82 75 68 62 57 48 57 58 58
158 159 157 159 160 160 161 163 163 165 160 159 157 153 148 141 134 126 119 109 99 92 83 80 76 75 74 71 66 68 68 54 48
161 160 161 165 163 164 166 166 167 168 168 165 160 156 151 145 140 136 132 132 121 105 99 102 89 83 92 89 90 82 74 68 54
164 163 169 167 167 168 169 168 170 171 172 167 164 160 158 155 155 149 151 142 134 119 101 82 78 95 107 108 106 88 66 48 32
167 169 173 172 172 173 172 172 173 174 173 172 170 166 167 165 159 163 160 160 156 151 140 107 98 106 114 120 110 78 32 3 360